Lid_Strength_Index
4 4 4 4 3 4 4 4 4 4 4 4 4 4 4 4 4 7 10 7 6 3 1 5 4 5 8 11 12 12 17 19 17 16 14 11 12 11 11 12 11 10 6 4 3
4 4 4 4 4 4 4 4 4 4 4 4 4 5 5 4 7 9 6 3 3 3 5 7 9 9 12 12 13 14 17 17 14 13 13 11 12 12 11 12 12 11 4 3 3
4 4 4 4 5 5 4 4 4 4 4 5 5 5 5 5 12 11 2 2 3 3 5 7 8 10 13 14 14 14 16 14 13 11 11 11 11 10 11 12 11 12 6 5 4
5 5 5 5 4 4 4 4 4 4 4 5 5 5 5 8 17 10 -1 2 2 3 5 7 10 13 14 15 14 16 14 12 12 11 11 11 9 10 11 11 10 11 6 5 5
5 5 5 5 5 5 5 5 5 5 5 5 5 5 7 11 11 7 3 5 3 4 5 9 10 12 15 14 15 17 15 13 10 10 11 11 12 11 11 9 9 10 4 5 5
5 5 5 5 5 5 5 5 5 5 5 5 5 5 9 14 7 7 8 7 4 5 6 7 10 10 12 14 13 13 14 13 13 12 12 11 11 12 10 8 9 10 10 5 5
5 5 5 6 6 5 5 5 5 5 5 5 4 6 10 11 6 7 8 9 7 5 7 5 7 9 11 14 11 13 15 14 14 13 14 12 14 13 11 9 9 10 11 10 7
5 5 6 6 5 5 5 5 5 5 5 4 4 6 11 7 6 6 7 8 7 7 8 7 6 9 12 12 13 14 15 17 15 14 13 13 16 12 11 10 10 9 10 10 10
5 5 6 6 5 5 5 5 5 5 4 4 6 7 12 6 8 6 6 8 8 8 8 5 6 10 12 15 16 16 20 19 16 14 13 14 16 12 10 11 11 9 9 9 9
6 5 5 6 5 5 5 5 5 5 5 5 6 10 9 10 7 6 6 7 8 9 9 10 8 12 12 15 18 19 19 18 17 14 14 15 16 12 12 11 12 11 10 9 9
6 6 5 5 4 5 6 8 11 13 11 11 9 9 9 6 6 6 5 8 8 9 14 10 12 14 13 12 13 15 16 16 16 14 15 14 15 14 12 12 13 12 11 11 9
6 6 5 5 5 4 6 10 9 11 15 10 9 9 8 7 10 7 5 8 9 11 9 11 14 10 10 11 12 14 16 17 14 13 14 15 15 13 12 12 12 12 12 11 10
5 5 5 5 4 8 10 9 6 7 13 11 8 8 7 6 9 8 5 7 9 11 11 12 11 8 11 12 13 14 16 16 15 13 13 14 15 14 12 11 11 11 11 11 11
5 5 4 4 7 10 9 7 7 6 13 11 8 6 5 5 8 5 4 6 8 11 10 11 8 10 11 13 13 16 13 13 13 15 18 14 20 16 13 12 11 11 11 11 11
4 4 4 4 7 9 7 6 6 6 19 10 8 3 5 7 7 6 4 6 10 10 10 13 11 11 12 12 12 14 11 12 12 15 16 16 19 17 14 13 12 11 11 11 11
4 4 4 7 8 6 5 5 6 13 19 11 7 8 9 7 8 6 7 5 6 9 9 10 7 8 10 9 10 10 11 12 13 15 19 16 18 18 15 13 12 11 10 10 10
4 4 5 5 8 5 5 6 14 18 9 12 11 9 10 10 9 9 10 11 13 16 15 12 11 8 8 11 9 10 14 19 19 19 20 16 18 17 13 10 9 10 9 10 9
4 4 5 5 5 5 4 10 17 12 12 9 10 10 12 10 10 10 12 13 10 12 14 16 17 11 8 10 11 12 13 19 22 21 21 15 19 16 10 9 8 8 7 7 7
4 8 7 6 4 4 7 14 15 13 11 12 11 13 12 11 11 11 13 13 11 11 16 16 16 9 9 8 9 11 13 13 17 17 19 17 15 11 10 10 9 9 8 8 7
7 10 8 4 3 5 9 12 12 9 9 10 15 13 15 14 14 13 13 10 11 10 9 13 16 11 9 8 8 10 10 15 15 20 21 18 16 16 14 12 10 9 9 8 7
8 10 6 3 4 8 14 12 10 7 8 11 12 14 13 14 13 14 13 10 9 10 9 11 14 14 11 13 13 12 12 12 14 17 20 21 19 13 12 10 10 9 8 7 7
7 13 6 5 11 10 11 9 7 8 8 9 9 11 12 12 14 14 14 11 8 9 13 11 13 17 15 11 10 10 12 13 16 18 17 17 18 11 10 9 9 9 8 8 8
9 9 5 6 13 11 9 9 8 9 9 9 11 9 10 12 15 13 12 9 8 9 12 11 15 18 17 14 11 13 12 12 14 14 16 19 18 10 9 9 8 8 8 8 8
9 11 10 9 8 10 11 11 10 8 9 9 10 9 11 12 11 13 12 9 8 9 8 9 13 15 19 17 13 15 12 11 13 17 16 16 16 13 11 10 9 9 9 9 8
10 12 8 11 10 10 10 10 11 12 9 9 10 10 12 13 13 13 11 11 9 8 9 10 15 13 13 11 12 12 11 11 13 13 15 15 15 12 11 10 9 8 8 8 8
11 9 8 9 8 10 10 11 11 10 11 11 11 10 10 13 12 13 12 11 12 10 11 10 15 13 15 11 11 12 11 10 11 11 13 13 14 9 8 8 8 8 8 8 8
5 5 7 9 10 11 11 10 10 10 9 9 10 11 11 11 10 9 9 9 10 11 12 12 14 15 18 13 13 15 13 11 11 11 12 15 12 9 10 9 8 8 8 9 10